Date String (YYYY-MM-DD hh:mm:ss) UTC,Instrument flags,Ambient pressure (hPa),Sample flow (lpm),Bypass flow (lpm),Sample temperature (°C),Ambient temperature (°C),ASC tube jacket temperature (°C),LED temperature (°C),Box temperature (°C),Sample RH (%),Span deviation,Mass concentration (μg/m³),Mass concentration (μg/m³),Mass concentration (μg/m³)
DateTimeUTC,F1_M11,P_M11,Q1_M11,Q2_M11,T1_M11,T2_M11,T3_M11,T4_M11,T5_M11,U1_M11,ZSPAN_M11,X0_M11,X2_M11,X1_M11
2022-05-29 21:00:00,,0811.3,5.00,0.00,29.6,28.4,00.0,38.6,31.4,20.5,0000.0,0008.21,0003.07,0001.17
2022-05-29 21:01:00,,0811.3,5.00,0.00,29.6,28.5,00.0,38.6,31.4,20.1,0000.0,0007.31,0003.02,0001.17
2022-05-29 21:02:00,,0811.3,5.00,0.00,29.6,28.4,00.0,38.6,31.4,20.1,0000.0,0007.32,0003.01,0001.17
2022-05-29 21:03:00,,0811.4,4.99,0.00,29.6,28.4,00.0,38.6,31.4,20.2,0000.0,0007.40,0003.07,0001.17
2022-05-29 21:04:00,,0811.4,5.01,0.00,29.6,28.4,00.0,38.6,31.4,20.1,0000.0,0007.46,0003.08,0001.18
2022-05-29 21:05:00,,0811.5,5.01,0.00,29.6,28.4,00.0,38.6,31.4,19.8,0000.0,0007.38,0003.05,0001.17
2022-05-29 21:06:00,,0811.5,4.99,0.00,29.6,28.4,00.0,38.6,31.4,20.0,0000.0,0007.11,0002.94,0001.15
2022-05-29 21:07:00,,0811.5,5.00,0.00,29.6,28.4,00.0,38.6,31.4,20.0,0000.0,0007.39,0002.90,0001.09
2022-05-29 21:08:00,,0811.5,5.00,0.00,29.6,28.4,00.0,38.6,31.4,19.7,0000.0,0007.09,0002.75,0001.04
2022-05-29 21:09:00,,0811.6,5.01,0.00,29.6,28.4,00.0,38.6,31.4,19.4,0000.0,0006.78,0002.66,0000.99
2022-05-29 21:10:00,,0811.5,5.00,0.00,29.6,28.4,00.0,38.6,31.4,19.3,0000.0,0006.54,0002.52,0000.93
2022-05-29 21:11:00,,0811.6,4.99,0.00,29.6,28.4,00.0,38.5,31.4,19.5,0000.0,0007.02,0002.29,0000.87
2022-05-29 21:12:00,,0811.7,5.01,0.00,29.6,28.4,00.0,38.6,31.4,19.9,0000.0,0006.77,0002.08,0000.83
2022-05-29 21:13:00,,0811.9,5.00,0.00,29.6,28.4,00.0,38.6,31.4,20.5,0000.0,0006.17,0001.93,0000.79
2022-05-29 21:14:00,,0811.9,5.00,0.00,29.6,28.4,00.0,38.5,31.4,20.2,0000.0,0005.84,0001.77,0000.74
2022-05-29 21:15:00,,0812.0,4.99,0.00,29.6,28.4,00.0,38.5,31.4,19.0,0000.0,0005.50,0001.60,0000.68
2022-05-29 21:16:00,,0812.0,5.00,0.00,29.6,28.4,00.0,38.5,31.4,18.4,0000.0,0005.94,0001.51,0000.63
2022-05-29 21:17:00,,0812.1,5.00,0.00,29.6,28.4,00.0,38.5,31.4,18.1,0000.0,0005.68,0001.43,0000.59
2022-05-29 21:18:00,,0812.1,4.99,0.00,29.6,28.3,00.0,38.5,31.4,18.4,0000.0,0004.97,0001.30,0000.56
2022-05-29 21:19:00,,0812.0,5.00,0.00,29.6,28.3,00.0,38.5,31.4,18.4,0000.0,0004.72,0001.20,0000.54
2022-05-29 21:20:00,,0812.0,5.01,0.00,29.6,28.3,00.0,38.5,31.4,18.5,0000.0,0004.61,0001.14,0000.52
2022-05-29 21:21:00,,0812.0,4.98,0.00,29.6,28.3,00.0,38.5,31.4,18.8,0000.0,0004.54,0001.12,0000.51
2022-05-29 21:22:00,,0812.0,5.01,0.00,29.6,28.3,00.0,38.5,31.4,19.1,0000.0,0003.48,0001.10,0000.50
2022-05-29 21:23:00,,0812.0,5.00,0.00,29.6,28.3,00.0,38.5,31.3,19.0,0000.0,0003.18,0001.10,0000.49
2022-05-29 21:24:00,,0811.9,4.99,0.00,29.6,28.3,00.0,38.5,31.3,18.8,0000.0,0003.26,0001.08,0000.48
2022-05-29 21:25:00,,0811.7,5.00,0.00,29.6,28.3,00.0,38.5,31.3,18.8,0000.0,0003.32,0001.04,0000.47
2022-05-29 21:26:00,,0811.6,5.00,0.00,29.6,28.3,00.0,38.5,31.3,18.9,0000.0,0003.13,0001.03,0000.48
2022-05-29 21:27:00,,0811.5,4.99,0.00,29.5,28.3,00.0,38.5,31.3,18.6,0000.0,0002.50,0001.03,0000.48
2022-05-29 21:28:00,,0811.4,5.00,0.00,29.5,28.3,00.0,38.5,31.3,18.8,0000.0,0002.43,0001.00,0000.49
2022-05-29 21:29:00,,0811.3,5.00,0.00,29.5,28.3,00.0,38.5,31.3,19.3,0000.0,0002.45,0001.01,0000.49
2022-05-29 21:30:00,,0811.3,4.99,0.00,29.5,28.3,00.0,38.5,31.3,19.0,0000.0,0002.97,0000.99,0000.50
2022-05-29 21:31:00,,0811.3,5.01,0.00,29.5,28.4,00.0,38.5,31.3,19.9,0000.0,0003.05,0000.99,0000.50
2022-05-29 21:32:00,,0811.3,5.00,0.00,29.5,28.4,00.0,38.5,31.3,20.5,0000.0,0003.14,0000.97,0000.52
2022-05-29 21:33:00,,0811.2,4.99,0.00,29.5,28.4,00.0,38.5,31.3,20.4,0000.0,0003.34,0001.00,0000.54
2022-05-29 21:34:00,,0811.1,5.01,0.00,29.5,28.4,00.0,38.5,31.3,20.8,0000.0,0003.81,0001.06,0000.56
2022-05-29 21:35:00,,0811.0,4.99,0.00,29.5,28.4,00.0,38.5,31.3,20.8,0000.0,0004.67,0001.21,0000.59
2022-05-29 21:36:00,,0811.0,5.00,0.00,29.5,28.4,00.0,38.5,31.3,21.2,0000.0,0005.10,0001.33,0000.63
2022-05-29 21:37:00,,0811.0,5.01,0.00,29.5,28.4,00.0,38.5,31.3,21.5,0000.0,0005.92,0001.47,0000.67
2022-05-29 21:38:00,,0810.9,5.01,0.00,29.5,28.4,00.0,38.5,31.3,21.6,0000.0,0006.24,0001.59,0000.71
2022-05-29 21:39:00,,0810.8,4.99,0.00,29.5,28.4,00.0,38.5,31.3,21.7,0000.0,0006.56,0001.73,0000.75
2022-05-29 21:40:00,,0810.8,5.00,0.00,29.5,28.4,00.0,38.5,31.3,21.4,0000.0,0007.09,0001.91,0000.79
2022-05-29 21:41:00,,0810.8,5.00,0.00,29.5,28.4,00.0,38.5,31.3,21.0,0000.0,0006.75,0002.01,0000.83
2022-05-29 21:42:00,,0810.8,5.00,0.00,29.5,28.4,00.0,38.5,31.3,21.7,0000.0,0006.87,0002.10,0000.87
2022-05-29 21:43:00,,0810.8,5.00,0.00,29.5,28.5,00.0,38.5,31.3,21.7,0000.0,0007.12,0002.23,0000.91
2022-05-29 21:44:00,,0810.9,4.99,0.00,29.5,28.5,00.0,38.5,31.3,21.4,0000.0,0007.69,0002.36,0000.95
2022-05-29 21:45:00,,0810.9,5.00,0.00,29.5,28.5,00.0,38.5,31.3,21.1,0000.0,0007.58,0002.44,0000.97
2022-05-29 21:46:00,,0811.0,5.01,0.00,29.5,28.5,00.0,38.5,31.4,20.7,0000.0,0006.95,0002.40,0000.97
2022-05-29 21:47:00,,0811.0,4.99,0.00,29.5,28.5,00.0,38.5,31.3,20.6,0000.0,0007.13,0002.38,0000.96
2022-05-29 21:48:00,,0811.0,5.00,0.00,29.5,28.5,00.0,38.5,31.4,21.0,0000.0,0006.58,0002.36,0000.96
2022-05-29 21:49:00,,0811.1,5.00,0.00,29.5,28.5,00.0,38.5,31.4,20.9,0000.0,0006.34,0002.29,0000.95
2022-05-29 21:50:00,,0811.2,5.01,0.00,29.5,28.5,00.0,38.5,31.3,20.9,0000.0,0006.24,0002.25,0000.94
2022-05-29 21:51:00,,0811.2,4.99,0.00,29.5,28.5,00.0,38.5,31.3,20.9,0000.0,0005.96,0002.19,0000.93
2022-05-29 21:52:00,,0811.2,5.00,0.00,29.5,28.5,00.0,38.5,31.3,21.1,0000.0,0006.01,0002.18,0000.93
2022-05-29 21:53:00,,0811.2,5.00,0.00,29.5,28.5,00.0,38.5,31.3,21.4,0000.0,0005.95,0002.15,0000.91
2022-05-29 21:54:00,,0811.3,5.00,0.00,29.5,28.5,00.0,38.5,31.3,21.7,0000.0,0005.96,0002.16,0000.88
2022-05-29 21:55:00,,0811.2,5.00,0.00,29.5,28.5,00.0,38.5,31.3,21.9,0000.0,0005.08,0002.08,0000.87
2022-05-29 21:56:00,,0811.2,5.01,0.00,29.5,28.4,00.0,38.5,31.3,21.8,0000.0,0005.22,0002.05,0000.86
2022-05-29 21:57:00,,0811.2,5.00,0.00,29.5,28.4,00.0,38.5,31.3,21.7,0000.0,0005.30,0002.08,0000.86
2022-05-29 21:58:00,,0811.1,4.99,0.00,29.5,28.4,00.0,38.5,31.3,21.8,0000.0,0004.90,0002.11,0000.86
2022-05-29 21:59:00,,0811.2,5.01,0.00,29.5,28.4,00.0,38.5,31.3,22.0,0000.0,0005.02,0002.11,0000.86
